User: anonymous   Login
Location: Mainz-Finthen
(49.9906°N, 8.1713°E)
Time: 17:09:57
(UTC+00:00)
Language:

AO-73 - Orbit

View from above orbital plane
View from above orbital plane
View from above satellite
View from above satellite

Ground track
Ground track

The orbit data is extracted from the following two-line orbital elements,

1 39444U 13066AE  21336.89979198  .00000917  00000-0  11721-3 0  9997
2 39444  97.6021 315.0736 0056520 319.6556  40.0472 14.82647018432398
Epoch (UTC): 02 December 2021 21:35:42
Eccentricity: 0.0056520
inclination: 97.6021°
perigee height: 581 km
apogee height: 660 km
right ascension of ascending node: 315.0736°
argument of perigee: 319.6556°
revolutions per day: 14.82647018
mean anomaly at epoch: 40.0472°
orbit number at epoch: 43239

The dashed part of the orbit path shows where the satellite is in the earth's shadow,  

DLR